TimeEDT,TemperatureF,Dew PointF,Humidity,Sea Level PressureIn,VisibilityMPH,Wind Direction,Wind SpeedMPH,Gust SpeedMPH,PrecipitationIn,Events,Conditions,WindDirDegrees,DateUTC
12:15 AM,62.6,-9999,N/A,30.08,10.0,Calm,Calm,-,N/A,,Overcast,0,2013-10-10 04:15:00
12:55 AM,64.4,-9999,N/A,30.07,10.0,Calm,Calm,-,N/A,,Overcast,0,2013-10-10 04:55:00
1:15 AM,64.4,-9999,N/A,30.06,10.0,West,3.5,-,N/A,,Mostly Cloudy,270,2013-10-10 05:15:00
1:35 AM,62.6,-9999,N/A,30.07,10.0,Calm,Calm,-,N/A,,Partly Cloudy,0,2013-10-10 05:35:00
1:55 AM,62.6,-9999,N/A,30.07,9.0,Calm,Calm,-,N/A,,Clear,0,2013-10-10 05:55:00
2:15 AM,60.8,-9999,N/A,30.06,9.0,Calm,Calm,-,N/A,,Clear,0,2013-10-10 06:15:00
2:35 AM,59.0,-9999,N/A,30.06,7.0,Calm,Calm,-,N/A,,Clear,0,2013-10-10 06:35:00
2:55 AM,59.0,-9999,N/A,30.06,5.0,Calm,Calm,-,N/A,,Haze,0,2013-10-10 06:55:00
3:15 AM,57.2,-9999,N/A,30.05,0.5,Calm,Calm,-,N/A,Fog,Fog,0,2013-10-10 07:15:00
3:35 AM,57.2,-9999,N/A,30.05,0.5,Calm,Calm,-,N/A,Fog,Fog,0,2013-10-10 07:35:00
3:55 AM,57.2,-9999,N/A,30.05,3.0,Calm,Calm,-,N/A,,Clear,0,2013-10-10 07:55:00
4:15 AM,57.2,-9999,N/A,30.05,3.0,Calm,Calm,-,N/A,,Clear,0,2013-10-10 08:15:00
4:35 AM,59.0,-9999,N/A,30.05,5.0,Calm,Calm,-,N/A,,Haze,0,2013-10-10 08:35:00
4:55 AM,59.0,-9999,N/A,30.06,5.0,Calm,Calm,-,N/A,,Haze,0,2013-10-10 08:55:00
5:15 AM,57.2,-9999,N/A,30.05,5.0,Calm,Calm,-,N/A,,Haze,0,2013-10-10 09:15:00
5:35 AM,57.2,-9999,N/A,30.06,4.0,Calm,Calm,-,N/A,,Haze,0,2013-10-10 09:35:00
5:55 AM,57.2,-9999,N/A,30.06,4.0,Calm,Calm,-,N/A,,Haze,0,2013-10-10 09:55:00
6:15 AM,55.4,-9999,N/A,30.07,8.0,Calm,Calm,-,N/A,,Clear,0,2013-10-10 10:15:00
6:35 AM,57.2,-9999,N/A,30.07,7.0,Calm,Calm,-,N/A,,Clear,0,2013-10-10 10:35:00
6:50 AM,57.2,-9999,N/A,30.07,7.0,Calm,Calm,-,N/A,,Clear,0,2013-10-10 10:50:00
7:50 AM,57.2,-9999,N/A,30.07,7.0,Calm,Calm,-,N/A,,Clear,0,2013-10-10 11:50:00
8:50 AM,62.6,-9999,N/A,30.09,10.0,Calm,Calm,-,N/A,,Clear,0,2013-10-10 12:50:00
9:50 AM,68.0,-9999,N/A,30.09,10.0,Calm,Calm,-,N/A,,Clear,0,2013-10-10 13:50:00
10:50 AM,71.6,-9999,N/A,30.10,10.0,North,5.8,-,N/A,,Clear,360,2013-10-10 14:50:00
11:50 AM,75.2,-9999,N/A,30.10,10.0,North,6.9,-,N/A,,Clear,10,2013-10-10 15:50:00
12:50 PM,77.0,-9999,N/A,30.08,10.0,North,8.1,-,N/A,,Clear,360,2013-10-10 16:50:00
1:50 PM,78.8,-9999,N/A,30.06,10.0,North,3.5,-,N/A,,Clear,360,2013-10-10 17:50:00
2:50 PM,80.6,-9999,N/A,30.03,10.0,NNE,5.8,-,N/A,,Clear,30,2013-10-10 18:50:00
3:50 PM,82.4,-9999,N/A,30.01,10.0,NNW,4.6,-,N/A,,Clear,330,2013-10-10 19:50:00
4:50 PM,82.4,-9999,N/A,30.00,10.0,Calm,Calm,-,N/A,,Clear,0,2013-10-10 20:50:00
5:50 PM,80.6,-9999,N/A,30.00,10.0,NNW,4.6,-,N/A,,Clear,330,2013-10-10 21:50:00
6:50 PM,77.0,-9999,N/A,29.99,10.0,NNW,4.6,-,N/A,,Clear,330,2013-10-10 22:50:00
7:50 PM,66.2,-9999,N/A,30.00,10.0,Calm,Calm,-,N/A,,Clear,0,2013-10-10 23:50:00
8:15 PM,64.4,-9999,N/A,30.01,10.0,Calm,Calm,-,N/A,,Clear,0,2013-10-11 00:15:00
8:35 PM,62.6,-9999,N/A,30.02,10.0,Calm,Calm,-,N/A,,Clear,0,2013-10-11 00:35:00
8:55 PM,62.6,-9999,N/A,30.02,10.0,Calm,Calm,-,N/A,,Clear,0,2013-10-11 00:55:00
9:15 PM,62.6,-9999,N/A,30.02,10.0,Calm,Calm,-,N/A,,Clear,0,2013-10-11 01:15:00
9:35 PM,62.6,-9999,N/A,30.03,10.0,Calm,Calm,-,N/A,,Clear,0,2013-10-11 01:35:00
9:55 PM,60.8,-9999,N/A,30.03,10.0,Calm,Calm,-,N/A,,Clear,0,2013-10-11 01:55:00
10:15 PM,60.8,-9999,N/A,30.04,10.0,Calm,Calm,-,N/A,,Clear,0,2013-10-11 02:15:00
10:35 PM,59.0,-9999,N/A,30.04,10.0,Calm,Calm,-,N/A,,Clear,0,2013-10-11 02:35:00
10:55 PM,59.0,-9999,N/A,30.04,10.0,Calm,Calm,-,N/A,,Clear,0,2013-10-11 02:55:00
11:15 PM,59.0,-9999,N/A,30.04,10.0,Calm,Calm,-,N/A,,Clear,0,2013-10-11 03:15:00
11:35 PM,59.0,-9999,N/A,30.03,10.0,Calm,Calm,-,N/A,,Clear,0,2013-10-11 03:35:00
11:55 PM,59.0,-9999,N/A,30.03,10.0,Calm,Calm,-,N/A,,Clear,0,2013-10-11 03:55:00